Notices

What's New in latest Release from April 7th, 2021:

- Updated Glossary, including Speed of Maximum Gust, and Total Hourly Precipitation

- Updated national and regional climate services offices contacts and prices information

- Addition of station inventory lists for 1981-2010, 1971-2000, and 1961-1990 Normals.

If you haven't already, please take our survey and provide feedback about our website: https://eccc.sondage-survey.ca/f/LanguageSelection.aspx?s=442ca660-fcf1-47c0-95a9-59707d6fd709

Hourly Data Report for March 14, 2017

MIRAMICHI RCS
NEW BRUNSWICK

47°00'34.000" N
65°27'54.000" W
33.00 m
8100989
71744
ACQ

Download Data

Hourly Data (March 2017)
Hourly Data Report for March 14, 2017
TIME
LST
Temp Definition
°C
Dew Point Definition
°C
Rel Hum Definition
%
Precip. Amount Definition
mm

Wind Dir Definition
10's deg

Wind Spd Definition
km/h
Visibility Definition
km
Stn Press Definition
kPa
Hmdx Definition


Wind Chill Definition


Weather Definition


00:00 -7.7 -13.0 66 0.0 25 5   102.36   -10 LegendNANA
01:00 -8.4 -13.4 67 0.0 24 9   102.43   -13 LegendNANA
02:00 -8.8 -14.4 64 0.0 26 8   102.49   -13 LegendNANA
03:00 -9.6 -14.4 68 0.0 26 4   102.44   -12 LegendNANA
04:00 -11.5 -14.6 78 0.0 18 3   102.47   -13 LegendNANA
05:00 -12.5 -15.2 80 0.0 24 2   102.50   -14 LegendNANA
06:00 -12.9 -15.4 81 0.0 25 3   102.56   -15 LegendNANA
07:00 -12.5 -15.6 78 0.0 26 4   102.59   -15 LegendNANA
08:00 -11.7 -15.1 76 0.0 22 3   102.62   -14 LegendNANA
09:00 -8.2 -14.6 60 0.0   0   102.61     LegendNANA
10:00 -5.3 -13.8 51 0.0 10 1   102.56   -6 LegendNANA
11:00 -3.2 -13.1 47 0.0 1 1   102.51   -4 LegendNANA
12:00 -2.1 -13.9 40 0.0 1 3   102.47   -3 LegendNANA
13:00 -1.6 -12.7 43 0.0 6 8   102.40   -5 LegendNANA
14:00 -2.6 -11.5 50 0.0 7 15   102.26   -8 LegendNANA
15:00 -2.4 -10.8 53 0.0 5 16   102.16   -8 LegendNANA
16:00 -2.9 -9.5 61 0.0 6 18   102.05   -9 LegendNANA
17:00 -3.6 -9.2 65 0.0 6 24   101.91   -10 LegendNANA
18:00 -3.9 -7.5 76 0.0 7 24   101.73   -11 LegendNANA
19:00 -4.2 -7.2 80 0.0 7 28   101.61   -12 LegendNANA
20:00 -5.1 -6.7 89 0.0 6 35   101.27   -14 LegendNANA
21:00 -5.0 -6.3 90 0.7 6 39   100.94   -14 LegendNANA
22:00 -4.6 -5.7 92 0.9 6 42   100.56   -14 LegendNANA
23:00 -4.1 -5.1 93 1.8 6 47   100.10   -13 LegendNANA

Notes on Data Quality.

Legend

  • E = Estimated
  • M = Missing
  • NA = Not Available*
  • [empty] = Indicates an unobserved value
Date modified: